FW6147 Weather Reports


Display with metric or nautical units.
time (UTC)temp
F
wind
direction
speed
MPH
gust
MPH
rain 1hr
in
rain 24hr
in
rain mn
in
humidity
%
barometer
mb
20200408000233 72 0 0.0 2.0 0.00 0.00 0.00 27 1018.0
20200407235604 72 0 0.0 2.0 0.00 0.00 0.00 27 1018.0
20200407235054 72 0 0.0 0.0 0.00 0.00 0.00 27 1018.0
20200407234733 72 0 0.0 2.0 0.00 0.00 0.00 27 1018.0
20200407234054 72 0 0.0 2.0 0.00 0.00 0.00 28 1017.9
20200407233554 72 0 0.0 6.0 0.00 0.00 0.00 27 1018.0
20200407233156 72 0 0.0 6.0 0.00 0.00 0.00 26 1018.0
20200407232632 73 241 1.0 5.0 0.00 0.00 0.00 26 1018.0
20200407232100 73 218 1.0 12.0 0.00 0.00 0.00 25 1018.0
20200407231714 73 245 6.0 12.0 0.00 0.00 0.00 25 1017.8
20200407231107 72 211 0.0 0.0 0.00 0.00 0.00 27 1018.0
20200407230554 72 0 0.0 0.0 0.00 0.00 0.00 28 1018.1
20200407230239 72 0 0.0 0.0 0.00 0.00 0.00 29 1018.1
20200407225555 72 0 0.0 0.0 0.00 0.00 0.00 29 1018.0
20200407225055 72 0 0.0 3.0 0.00 0.00 0.00 30 1018.1
20200407224702 72 0 0.0 3.0 0.00 0.00 0.00 28 1018.1
20200407224107 71 0 0.0 3.0 0.00 0.00 0.00 29 1018.2
20200407223557 71 0 0.0 5.0 0.00 0.00 0.00 28 1018.2
20200407223420 72 0 0.0 5.0 0.00 0.00 0.00 29 1018.2
20200407222554 72 0 0.0 5.0 0.00 0.00 0.00 30 1018.3
20200407222056 72 240 0.0 5.0 0.00 0.00 0.00 29 1018.4
20200407221640 72 266 0.0 6.0 0.00 0.00 0.00 28 1018.4
20200407221100 73 0 0.0 7.0 0.00 0.00 0.00 27 1018.3
20200407220611 73 276 2.0 7.0 0.00 0.00 0.00 30 1018.3
20200407220140 73 251 1.0 9.0 0.00 0.00 0.00 27 1018.3
20200407215555 73 234 4.0 10.0 0.00 0.00 0.00 27 1018.4
20200407215054 74 248 3.0 10.0 0.00 0.00 0.00 27 1018.5
20200407214647 76 217 4.0 9.0 0.00 0.00 0.00 25 1018.5
20200407214121 76 214 2.0 9.0 0.00 0.00 0.00 26 1018.6
20200407213617 76 210 2.0 10.0 0.00 0.00 0.00 27 1018.6
20200407213146 75 0 2.0 21.0 0.00 0.00 0.00 26 1018.8
20200407212554 74 217 7.0 21.0 0.00 0.00 0.00 26 1018.8
20200407212102 73 0 0.0 7.0 0.00 0.00 0.00 27 1018.9
20200407211707 73 0 0.0 7.0 0.00 0.00 0.00 25 1019.0
20200407211054 73 203 0.0 3.0 0.00 0.00 0.00 29 1019.1
20200407210606 73 0 0.0 5.0 0.00 0.00 0.00 28 1019.2
20200407210117 74 0 0.0 7.0 0.00 0.00 0.00 26 1019.3
20200407205603 74 208 1.0 7.0 0.00 0.00 0.00 28 1019.5
20200407205053 72 0 0.0 4.0 0.00 0.00 0.00 31 1019.5
20200407204742 72 0 0.0 4.0 0.00 0.00 0.00 29 1019.6
20200407204053 72 0 0.0 2.0 0.00 0.00 0.00 29 1019.8
20200407203553 73 0 0.0 4.0 0.00 0.00 0.00 28 1019.8
20200407203251 73 0 0.0 4.0 0.00 0.00 0.00 28 1019.9
20200407202556 73 0 0.0 4.0 0.00 0.00 0.00 30 1020.0
20200407202054 73 108 0.0 4.0 0.00 0.00 0.00 29 1019.9
20200407201856 73 208 0.0 3.0 0.00 0.00 0.00 30 1020.1
20200407201055 72 0 0.0 2.0 0.00 0.00 0.00 30 1020.1
20200407200553 71 132 0.0 5.0 0.00 0.00 0.00 30 1020.1
20200407200227 71 0 0.0 10.0 0.00 0.00 0.00 29 1020.2
20200407195555 73 146 0.0 10.0 0.00 0.00 0.00 30 1020.4
20200407195111 72 0 0.0 8.0 0.00 0.00 0.00 29 1020.4
20200407194811 72 0 0.0 5.0 0.00 0.00 0.00 27 1020.4
20200407194102 74 0 0.0 9.0 0.00 0.00 0.00 27 1020.5
20200407193554 74 0 2.0 9.0 0.00 0.00 0.00 27 1020.7
20200407193209 73 241 0.0 4.0 0.00 0.00 0.00 26 1020.5
20200407192556 73 179 0.0 8.0 0.00 0.00 0.00 27 1020.6
20200407192056 73 0 0.0 8.0 0.00 0.00 0.00 27 1020.6
20200407191727 72 207 1.0 6.0 0.00 0.00 0.00 29 1020.6
20200407191055 71 179 0.0 6.0 0.00 0.00 0.00 30 1020.7
20200407190554 71 0 0.0 6.0 0.00 0.00 0.00 29 1020.9
20200407190148 71 0 0.0 7.0 0.00 0.00 0.00 29 1021.0
20200407185554 70 0 0.0 10.0 0.00 0.00 0.00 30 1020.9
20200407185106 70 0 2.0 18.0 0.00 0.00 0.00 30 1021.1
20200407184626 70 84 9.0 18.0 0.00 0.00 0.00 30 1021.2
20200407184053 69 360 6.0 10.0 0.00 0.00 0.00 33 1021.1
20200407183553 69 68 4.0 10.0 0.00 0.00 0.00 32 1021.2
20200407183101 69 82 2.0 13.0 0.00 0.00 0.00 33 1021.3
20200407182553 69 104 6.0 13.0 0.00 0.00 0.00 31 1021.4
20200407182055 68 0 4.0 11.0 0.00 0.00 0.00 32 1021.4
20200407181803 68 89 5.0 11.0 0.00 0.00 0.00 32 1021.6
20200407181059 68 90 3.0 9.0 0.00 0.00 0.00 34 1021.6
20200407180553 68 0 1.0 12.0 0.00 0.00 0.00 32 1021.6
20200407180110 68 108 3.0 12.0 0.00 0.00 0.00 33 1021.7
20200407175554 68 0 3.0 12.0 0.00 0.00 0.00 33 1021.8
20200407175055 67 360 2.0 8.0 0.00 0.00 0.00 34 1021.8
20200407174612 67 0 3.0 10.0 0.00 0.00 0.00 35 1021.8
20200407174054 67 360 4.0 10.0 0.00 0.00 0.00 36 1021.8
20200407173554 67 86 3.0 8.0 0.00 0.00 0.00 34 1021.8
20200407173119 67 95 2.0 9.0 0.00 0.00 0.00 35 1021.7
20200407172602 66 360 3.0 9.0 0.00 0.00 0.00 36 1021.8
20200407172054 66 98 4.0 8.0 0.00 0.00 0.00 35 1021.9
20200407171617 65 0 3.0 9.0 0.00 0.00 0.00 37 1021.9
20200407171100 65 72 4.0 9.0 0.00 0.00 0.00 37 1021.9
20200407170552 64 360 2.0 5.0 0.00 0.00 0.00 37 1021.9
20200407170152 65 74 2.0 7.0 0.00 0.00 0.00 36 1021.9
20200407165556 64 79 3.0 7.0 0.00 0.00 0.00 37 1022.0
20200407165052 64 0 1.0 5.0 0.00 0.00 0.00 38 1022.0
20200407164610 64 89 2.0 5.0 0.00 0.00 0.00 39 1022.0
20200407164108 64 0 0.0 5.0 0.00 0.00 0.00 37 1021.9
20200407163557 64 89 0.0 3.0 0.00 0.00 0.00 39 1022.0
20200407163109 63 91 0.0 3.0 0.00 0.00 0.00 40 1021.9
20200407162602 62 105 0.0 3.0 0.00 0.00 0.00 42 1022.0
20200407162053 62 0 0.0 3.0 0.00 0.00 0.00 42 1021.9
20200407161611 61 0 0.0 2.0 0.00 0.00 0.00 42 1021.9
20200407161059 61 0 0.0 1.0 0.00 0.00 0.00 44 1021.9
20200407160606 61 0 0.0 1.0 0.00 0.00 0.00 44 1021.9
20200407160129 61 0 0.0 1.0 0.00 0.00 0.00 42 1021.9
20200407155605 60 0 0.0 1.0 0.00 0.00 0.00 44 1022.0
20200407155056 59 0 0.0 0.0 0.00 0.00 0.00 44 1022.0
20200407154718 58 0 0.0 0.0 0.00 0.00 0.00 48 1021.9
20200407154054 57 0 0.0 0.0 0.00 0.00 0.00 47 1021.7
20200407153555 56 0 0.0 0.0 0.00 0.00 0.00 47 1021.8
20200407153239 55 0 0.0 0.0 0.00 0.00 0.00 48 1021.8
20200407152554 55 0 0.0 0.0 0.00 0.00 0.00 49 1021.7
20200407152051 55 0 0.0 0.0 0.00 0.00 0.00 50 1021.8
20200407151636 55 0 0.0 0.0 0.00 0.00 0.00 48 1021.8
20200407151101 55 0 0.0 0.0 0.00 0.00 0.00 49 1021.8
20200407150554 55 0 0.0 0.0 0.00 0.00 0.00 47 1021.8
20200407150122 54 0 0.0 0.0 0.00 0.00 0.00 49 1021.8
20200407145555 53 0 0.0 1.0 0.00 0.00 0.00 51 1021.7
20200407145105 53 0 0.0 1.0 0.00 0.00 0.00 52 1021.7
20200407144708 53 0 0.0 0.0 0.00 0.00 0.00 51 1021.7
20200407144107 52 0 0.0 0.0 0.00 0.00 0.00 50 1021.6
20200407143552 51 0 0.0 0.0 0.00 0.00 0.00 52 1021.5
20200407143209 50 0 0.0 0.0 0.00 0.00 0.00 53 1021.5
20200407142552 49 0 0.0 0.0 0.00 0.00 0.00 53 1021.6
20200407142056 48 0 0.0 0.0 0.00 0.00 0.00 56 1021.6
20200407141748 47 0 0.0 0.0 0.00 0.00 0.00 58 1021.5
20200407141053 47 0 0.0 0.0 0.00 0.00 0.00 59 1021.4
20200407140552 46 0 0.0 0.0 0.00 0.00 0.00 60 1021.4
20200407140128 45 0 0.0 0.0 0.00 0.00 0.00 61 1021.4
20200407135551 44 0 0.0 0.0 0.00 0.00 0.00 63 1021.2
20200407135053 43 0 0.0 0.0 0.00 0.00 0.00 65 1021.2
20200407134632 42 0 0.0 0.0 0.00 0.00 0.00 66 1021.1
20200407134100 41 0 0.0 0.0 0.00 0.00 0.00 66 1021.0
20200407133554 41 0 0.0 0.0 0.00 0.00 0.00 66 1021.0
20200407133140 41 0 0.0 0.0 0.00 0.00 0.00 65 1020.9
20200407132553 42 0 0.0 0.0 0.00 0.00 0.00 64 1020.9
20200407132108 42 0 0.0 0.0 0.00 0.00 0.00 64 1020.8
20200407131637 42 0 0.0 0.0 0.00 0.00 0.00 64 1020.7
20200407131053 41 0 0.0 0.0 0.00 0.00 0.00 65 1020.6
20200407130552 41 0 0.0 0.0 0.00 0.00 0.00 66 1020.6
20200407130153 40 0 0.0 0.0 0.00 0.00 0.00 67 1020.5
20200407125554 40 0 0.0 1.0 0.00 0.00 0.00 67 1020.5
20200407125111 40 0 0.0 1.0 0.00 0.00 0.00 67 1020.5
20200407124618 40 0 0.0 1.0 0.00 0.00 0.00 67 1020.4
20200407124131 40 0 0.0 1.0 0.00 0.00 0.00 66 1020.4
20200407123553 41 0 0.0 1.0 0.00 0.00 0.00 65 1020.2
20200407123144 41 0 0.0 0.0 0.00 0.00 0.00 65 1020.2
20200407122553 41 0 0.0 0.0 0.00 0.00 0.00 65 1020.3
20200407122052 41 0 0.0 0.0 0.00 0.00 0.00 65 1020.2
20200407121640 41 0 0.0 0.0 0.00 0.00 0.00 64 1020.3
20200407121113 41 0 0.0 0.0 0.00 0.00 0.00 64 1020.3
20200407120554 41 0 0.0 1.0 0.00 0.00 0.00 64 1020.3
20200407120129 41 0 0.0 1.0 0.00 0.00 0.00 64 1020.3
20200407115620 41 0 0.0 1.0 0.00 0.00 0.00 63 1020.2
20200407115057 42 0 0.0 0.0 0.00 0.00 0.00 62 1020.2
20200407114633 42 0 0.0 0.0 0.00 0.00 0.00 62 1020.2
20200407114051 42 0 0.0 0.0 0.00 0.00 0.00 62 1020.2
20200407113554 42 0 0.0 0.0 0.00 0.00 0.00 61 1020.2
20200407113222 43 0 0.0 0.0 0.00 0.00 0.00 60 1020.2
20200407112553 43 0 0.0 0.0 0.00 0.00 0.00 59 1020.2
20200407112052 44 0 0.0 0.0 0.00 0.00 0.00 58 1020.2
20200407111644 45 0 0.0 0.0 0.00 0.00 0.00 56 1020.2
20200407111055 45 0 0.0 0.0 0.00 0.00 0.00 56 1020.1
20200407110600 46 0 0.0 0.0 0.00 0.00 0.00 55 1020.2
20200407110344 46 0 0.0 0.0 0.00 0.00 0.00 55 1020.2
20200407105554 45 0 0.0 0.0 0.00 0.00 0.00 56 1020.3
20200407105052 45 0 0.0 0.0 0.00 0.00 0.00 56 1020.4
20200407104748 45 0 0.0 0.0 0.00 0.00 0.00 56 1020.4
20200407104056 45 0 0.0 0.0 0.00 0.00 0.00 57 1020.4
20200407103554 45 0 0.0 0.0 0.00 0.00 0.00 57 1020.4
20200407103132 46 0 0.0 0.0 0.00 0.00 0.00 56 1020.4
20200407102553 46 0 0.0 1.0 0.00 0.00 0.00 54 1020.4
20200407102054 47 0 0.0 1.0 0.00 0.00 0.00 52 1020.4
20200407101647 48 0 0.0 0.0 0.00 0.00 0.00 50 1020.5
20200407101113 48 0 0.0 0.0 0.00 0.00 0.00 49 1020.4
20200407100603 49 0 0.0 0.0 0.00 0.00 0.00 49 1020.4
20200407100140 48 0 0.0 0.0 0.00 0.00 0.00 49 1020.6
20200407095552 49 0 0.0 0.0 0.00 0.00 0.00 50 1020.5
20200407095101 49 0 0.0 0.0 0.00 0.00 0.00 50 1020.5
20200407094644 49 0 0.0 0.0 0.00 0.00 0.00 51 1020.4
20200407094054 50 0 0.0 0.0 0.00 0.00 0.00 48 1020.5
20200407093553 51 0 0.0 0.0 0.00 0.00 0.00 46 1020.5
20200407093101 51 0 0.0 0.0 0.00 0.00 0.00 46 1020.5
20200407092554 51 0 0.0 0.0 0.00 0.00 0.00 46 1020.6
20200407092052 50 0 0.0 1.0 0.00 0.00 0.00 46 1020.6
20200407091705 49 0 0.0 1.0 0.00 0.00 0.00 48 1020.8
20200407091057 49 0 0.0 0.0 0.00 0.00 0.00 48 1020.9
20200407090553 49 0 0.0 0.0 0.00 0.00 0.00 50 1020.8
20200407090257 48 0 0.0 0.0 0.00 0.00 0.00 51 1020.8
20200407085558 48 0 0.0 0.0 0.00 0.00 0.00 51 1020.8
20200407085054 49 0 0.0 0.0 0.00 0.00 0.00 50 1020.8
20200407084718 51 0 0.0 0.0 0.00 0.00 0.00 48 1020.8
20200407084114 52 0 0.0 0.0 0.00 0.00 0.00 43 1020.9
20200407083603 51 0 0.0 0.0 0.00 0.00 0.00 43 1020.8
20200407083212 51 0 0.0 1.0 0.00 0.00 0.00 44 1020.8
20200407082644 51 0 0.0 1.0 0.00 0.00 0.00 44 1020.9
20200407082057 51 0 0.0 2.0 0.00 0.00 0.00 44 1020.8
20200407081650 51 0 0.0 3.0 0.00 0.00 0.00 44 1020.9
20200407081057 51 0 0.0 3.0 0.00 0.00 0.00 43 1020.9
20200407080600 52 0 0.0 3.0 0.00 0.00 0.00 41 1021.0
20200407080127 53 136 0.0 2.0 0.00 0.00 0.00 40 1020.9
20200407075556 54 0 0.0 0.0 0.00 0.00 0.00 38 1020.9
20200407075058 55 0 0.0 0.0 0.00 0.00 0.00 37 1020.8
20200407074637 56 0 0.0 1.0 0.00 0.00 0.00 36 1020.9
20200407074053 55 0 0.0 2.0 0.00 0.00 0.00 37 1020.9
20200407073616 55 0 0.0 2.0 0.00 0.00 0.00 36 1020.9
20200407073321 56 0 0.0 1.0 0.00 0.00 0.00 35 1021.0
20200407072554 56 0 0.0 1.0 0.00 0.00 0.00 35 1021.0
20200407072116 55 0 0.0 0.0 0.00 0.00 0.00 36 1021.0
20200407071830 55 0 0.0 2.0 0.00 0.00 0.00 36 1020.9
20200407071054 56 0 0.0 2.0 0.00 0.00 0.00 35 1021.0
20200407070833 57 0 0.0 0.0 0.00 0.00 0.00 34 1021.0
20200407070757 57 0 0.0 0.0 0.00 0.00 0.00 34 1021.0
20200407070426 57 0 0.0 0.0 0.00 0.00 0.00 34 1021.0
20200407065623 57 0 0.0 0.0 0.00 0.00 0.00 33 1020.9
20200407065106 57 0 0.0 0.0 0.00 0.00 0.00 34 1020.8
20200407064849 57 0 0.0 0.0 0.00 0.00 0.00 34 1020.7
20200407064109 57 0 0.0 0.0 0.00 0.00 0.00 34 1020.7
20200407063554 55 0 0.0 0.0 0.00 0.00 0.00 37 1020.7
20200407063316 53 0 0.0 0.0 0.00 0.00 0.00 40 1020.8
20200407062559 54 0 0.0 1.0 0.00 0.00 0.00 42 1020.7
20200407062059 55 0 0.0 2.0 0.00 0.00 0.00 41 1020.7
20200407061646 56 0 0.0 2.0 0.00 0.00 0.00 35 1020.6
20200407061056 56 0 0.0 5.0 0.00 0.00 0.00 34 1020.5
20200407060610 56 0 0.0 5.0 0.00 0.00 0.00 35 1020.5
20200407060224 56 0 0.0 0.0 0.00 0.00 0.00 35 1020.4
20200407055554 55 0 0.0 0.0 0.00 0.00 0.00 36 1020.5
20200407055056 54 0 0.0 1.0 0.00 0.00 0.00 36 1020.4
20200407054650 55 0 0.0 1.0 0.00 0.00 0.00 35 1020.4
20200407054100 57 0 0.0 1.0 0.00 0.00 0.00 32 1020.4
20200407053601 58 0 0.0 0.0 0.00 0.00 0.00 31 1020.6
20200407053222 57 0 0.0 2.0 0.00 0.00 0.00 30 1020.4
20200407052556 57 0 0.0 2.0 0.00 0.00 0.00 30 1020.4
20200407052054 57 0 0.0 0.0 0.00 0.00 0.00 30 1020.4
20200407051633 57 0 0.0 2.0 0.00 0.00 0.00 31 1020.3
20200407051056 58 0 0.0 3.0 0.00 0.00 0.00 30 1020.3
20200407050559 58 0 0.0 3.0 0.00 0.00 0.00 30 1020.2
20200407050231 58 0 0.0 4.0 0.00 0.00 0.00 29 1020.2
20200407045556 58 0 0.0 4.0 0.00 0.00 0.00 29 1020.2
20200407045053 59 0 0.0 4.0 0.00 0.00 0.00 28 1020.2
20200407044616 60 0 0.0 4.0 0.00 0.00 0.00 28 1020.2
20200407044056 58 0 0.0 2.0 0.00 0.00 0.00 29 1020.2
20200407043556 59 0 0.0 3.0 0.00 0.00 0.00 29 1020.2
20200407043208 59 0 0.0 3.0 0.00 0.00 0.00 28 1020.2
20200407042557 60 0 0.0 2.0 0.00 0.00 0.00 27 1020.1
20200407042057 61 0 0.0 6.0 0.00 0.00 0.00 26 1020.0
20200407041756 60 0 1.0 8.0 0.00 0.00 0.00 26 1020.0
20200407041054 60 195 3.0 8.0 0.00 0.00 0.00 26 1019.8
20200407040558 60 203 2.0 7.0 0.00 0.00 0.00 26 1020.0
20200407040157 61 199 2.0 9.0 0.00 0.00 0.00 26 1019.9
20200407035555 61 0 2.0 9.0 0.00 0.00 0.00 25 1019.8
20200407035056 61 229 3.0 8.0 0.00 0.00 0.00 25 1019.7
20200407034732 61 206 3.0 7.0 0.00 0.00 0.00 25 1019.6
20200407034104 61 193 2.0 7.0 0.00 0.00 0.00 26 1019.6
20200407033621 61 217 2.0 7.0 0.00 0.00 0.00 25 1019.5
20200407033118 61 217 3.0 7.0 0.00 0.00 0.00 25 1019.5
20200407032553 62 210 1.0 6.0 0.00 0.00 0.00 25 1019.4
20200407032055 62 227 3.0 7.0 0.00 0.00 0.00 25 1019.3
20200407031645 61 205 4.0 7.0 0.00 0.00 0.00 25 1019.3
20200407031102 61 215 3.0 6.0 0.00 0.00 0.00 26 1019.2
20200407030556 61 216 2.0 5.0 0.00 0.00 0.00 26 1019.1
20200407030120 60 217 1.0 5.0 0.00 0.00 0.00 26 1019.0
20200407025602 60 219 1.0 5.0 0.00 0.00 0.00 25 1018.9
20200407025130 61 0 1.0 5.0 0.00 0.00 0.00 25 1018.7
20200407024629 61 0 1.0 6.0 0.00 0.00 0.00 24 1018.8
20200407024102 61 203 2.0 6.0 0.00 0.00 0.00 24 1018.7
20200407023556 61 195 2.0 9.0 0.00 0.00 0.00 24 1018.7
20200407023245 61 206 3.0 9.0 0.00 0.00 0.00 23 1018.5
20200407022619 61 227 1.0 6.0 0.00 0.00 0.00 23 1018.5
20200407022055 61 0 3.0 6.0 0.00 0.00 0.00 23 1018.3
20200407021658 62 203 1.0 5.0 0.00 0.00 0.00 22 1018.1
20200407021101 62 211 1.0 7.0 0.00 0.00 0.00 22 1018.0
20200407020554 63 200 2.0 7.0 0.00 0.00 0.00 22 1017.9
20200407020220 64 238 2.0 6.0 0.00 0.00 0.00 21 1017.9
20200407015613 64 214 2.0 11.0 0.00 0.00 0.00 20 1017.9
20200407015108 65 217 4.0 11.0 0.00 0.00 0.00 19 1017.7
20200407014629 66 212 4.0 11.0 0.00 0.00 0.00 19 1017.7
20200407014056 66 223 4.0 11.0 0.00 0.00 0.00 18 1017.6
20200407013613 67 230 4.0 13.0 0.00 0.00 0.00 18 1017.5
20200407013122 67 212 7.0 13.0 0.00 0.00 0.00 17 1017.4
20200407012606 67 226 6.0 13.0 0.00 0.00 0.00 18 1017.4
20200407012104 68 239 7.0 13.0 0.00 0.00 0.00 17 1017.3
20200407011634 68 229 6.0 13.0 0.00 0.00 0.00 18 1017.2
20200407011056 68 235 6.0 12.0 0.00 0.00 0.00 18 1017.0
20200407010555 68 224 7.0 11.0 0.00 0.00 0.00 17 1017.0
20200407010119 69 238 5.0 12.0 0.00 0.00 0.00 17 1016.9
20200407005556 69 233 7.0 12.0 0.00 0.00 0.00 17 1016.7
20200407005056 70 238 5.0 11.0 0.00 0.00 0.00 16 1016.6
20200407004630 70 226 6.0 10.0 0.00 0.00 0.00 15 1016.5
20200407004056 71 242 7.0 11.0 0.00 0.00 0.00 15 1016.5
20200407003555 71 246 7.0 11.0 0.00 0.00 0.00 16 1016.5
20200407003154 71 242 6.0 11.0 0.00 0.00 0.00 15 1016.5
20200407002607 71 245 6.0 12.0 0.00 0.00 0.00 15 1016.6
20200407002054 71 233 7.0 12.0 0.00 0.00 0.00 14 1016.6
20200407001758 72 240 8.0 12.0 0.00 0.00 0.00 15 1016.5
20200407001055 72 242 6.0 15.0 0.00 0.00 0.00 15 1016.5
20200407000556 72 230 6.0 15.0 0.00 0.00 0.00 14 1016.3